Powrót do katalogu

POLYTECH UNIVERSE-4

AktywnyNaukaSSO
NORAD 61747·PAYLOAD·🇷🇺 Russia

Wystrzelony Nov 4, 2024 z Vostochny Cosmodrome

Loading…

Następne Przeloty (najbliższe 24 godziny)

TLE

ŚwieżeSource: Space-Track

Epoka: Sep 14, 2026, 15:11 UTC

1 61747U 24199N   26257.63312269  .00016649  00000-0  31374-3 0  9991
2 61747  97.2827 131.4156 0006673 324.4696  35.6110 15.48555601151192

Śledź POLYTECH UNIVERSE-4 w czasie rzeczywistym z AllMySat

Download on the App Store